Date_Time,Julian_Date,Latitude,Longitude,Instrument_Depth,U,V,Speed,Direction
(yyyy-mm-dd hh:mn:ss UTC),(JD),(+ deg. North),(+ deg. East),(m),(cm/s),(cm/s),(cm/s),(deg True)
1991-02-17 08:00:00 UTC,2448304.833333,24.0533,-82.1617,0600,-1.25,-0.05,1.2510,267.7094
1991-02-17 09:00:00 UTC,2448304.875000,24.0533,-82.1617,0600,0.43,0.44,0.6152,44.3415
1991-02-17 10:00:00 UTC,2448304.916667,24.0533,-82.1617,0600,0.18,0.38,0.4205,25.3462
1991-02-17 11:00:00 UTC,2448304.958333,24.0533,-82.1617,0600,2.88,4.27,5.1505,33.9986
1991-02-17 12:00:00 UTC,2448305.000000,24.0533,-82.1617,0600,-3.57,-2.12,4.1520,239.2966
1991-02-17 13:00:00 UTC,2448305.041667,24.0533,-82.1617,0600,2.36,-0.16,2.3654,93.8785
1991-02-17 14:00:00 UTC,2448305.083333,24.0533,-82.1617,0600,-1.84,-0.35,1.8730,259.2300
1991-02-17 15:00:00 UTC,2448305.125000,24.0533,-82.1617,0600,-1.44,-0.26,1.4633,259.7652
1991-02-17 16:00:00 UTC,2448305.166667,24.0533,-82.1617,0600,-3.11,-0.43,3.1396,262.1280
1991-02-17 17:00:00 UTC,2448305.208333,24.0533,-82.1617,0600,-6.23,-0.60,6.2588,264.4989
1991-02-17 18:00:00 UTC,2448305.250000,24.0533,-82.1617,0600,-4.37,-0.18,4.3737,267.6413
1991-02-17 19:00:00 UTC,2448305.291667,24.0533,-82.1617,0600,-1.88,-0.03,1.8802,269.0858
1991-02-17 20:00:00 UTC,2448305.333333,24.0533,-82.1617,0600,-7.49,-0.40,7.5007,266.9431
1991-02-17 21:00:00 UTC,2448305.375000,24.0533,-82.1617,0600,-1.43,0.09,1.4328,273.6013
1991-02-17 22:00:00 UTC,2448305.416667,24.0533,-82.1617,0600,4.13,-1.19,4.2980,106.0736
1991-02-17 23:00:00 UTC,2448305.458333,24.0533,-82.1617,0600,-1.30,0.62,1.4403,295.4976
1991-02-18 00:00:00 UTC,2448305.500000,24.0533,-82.1617,0600,-4.30,2.53,4.9891,300.4714
1991-02-18 01:00:00 UTC,2448305.541667,24.0533,-82.1617,0600,-1.99,1.50,2.4920,307.0078
1991-02-18 02:00:00 UTC,2448305.583333,24.0533,-82.1617,0600,-7.14,7.74,10.5303,317.3091
1991-02-18 03:00:00 UTC,2448305.625000,24.0533,-82.1617,0600,-1.61,0.96,1.8745,300.8065
1991-02-18 04:00:00 UTC,2448305.666667,24.0533,-82.1617,0600,-3.48,3.21,4.7344,312.6889
1991-02-18 05:00:00 UTC,2448305.708333,24.0533,-82.1617,0600,-3.64,1.53,3.9485,292.7985
1991-02-18 06:00:00 UTC,2448305.750000,24.0533,-82.1617,0600,-0.81,0.17,0.8276,281.8530
1991-02-18 07:00:00 UTC,2448305.791667,24.0533,-82.1617,0600,-1.45,0.04,1.4506,271.5802
1991-02-18 08:00:00 UTC,2448305.833333,24.0533,-82.1617,0600,-1.65,0.01,1.6500,270.3473
1991-02-18 09:00:00 UTC,2448305.875000,24.0533,-82.1617,0600,-0.20,-0.06,0.2088,253.3008
1991-02-18 10:00:00 UTC,2448305.916667,24.0533,-82.1617,0600,-1.77,-1.50,2.3201,229.7201
1991-02-18 11:00:00 UTC,2448305.958333,24.0533,-82.1617,0600,-2.49,-0.18,2.4965,265.8653
1991-02-18 12:00:00 UTC,2448306.000000,24.0533,-82.1617,0600,2.55,0.15,2.5544,86.6335
1991-02-18 13:00:00 UTC,2448306.041667,24.0533,-82.1617,0600,-0.60,-0.00,0.6000,270.0000
1991-02-18 14:00:00 UTC,2448306.083333,24.0533,-82.1617,0600,-4.27,0.95,4.3744,282.5430
1991-02-18 15:00:00 UTC,2448306.125000,24.0533,-82.1617,0600,-5.37,1.66,5.6207,287.1777
1991-02-18 16:00:00 UTC,2448306.166667,24.0533,-82.1617,0600,-7.41,3.23,8.0834,293.5523
1991-02-18 17:00:00 UTC,2448306.208333,24.0533,-82.1617,0600,-6.64,4.56,8.0550,304.4792
1991-02-18 18:00:00 UTC,2448306.250000,24.0533,-82.1617,0600,-6.42,2.32,6.8263,289.8684
1991-02-18 19:00:00 UTC,2448306.291667,24.0533,-82.1617,0600,-4.99,0.27,4.9973,273.0972
1991-02-18 20:00:00 UTC,2448306.333333,24.0533,-82.1617,0600,-5.46,1.31,5.6150,283.4918
1991-02-18 21:00:00 UTC,2448306.375000,24.0533,-82.1617,0600,-6.56,2.59,7.0528,291.5450
1991-02-18 22:00:00 UTC,2448306.416667,24.0533,-82.1617,0600,3.14,-2.25,3.8629,125.6239
1991-02-18 23:00:00 UTC,2448306.458333,24.0533,-82.1617,0600,-1.60,1.86,2.4535,319.2974
1991-02-19 00:00:00 UTC,2448306.500000,24.0533,-82.1617,0600,-2.48,1.88,3.1120,307.1645
1991-02-19 01:00:00 UTC,2448306.541667,24.0533,-82.1617,0600,-1.65,1.84,2.4715,318.1162
1991-02-19 02:00:00 UTC,2448306.583333,24.0533,-82.1617,0600,-1.60,1.89,2.4763,319.7501
1991-02-19 03:00:00 UTC,2448306.625000,24.0533,-82.1617,0600,-4.27,4.76,6.3946,318.1060
1991-02-19 04:00:00 UTC,2448306.666667,24.0533,-82.1617,0600,-6.34,5.98,8.7153,313.3263
1991-02-19 05:00:00 UTC,2448306.708333,24.0533,-82.1617,0600,-6.15,4.23,7.4643,304.5204
1991-02-19 06:00:00 UTC,2448306.750000,24.0533,-82.1617,0600,-3.97,2.99,4.9700,306.9852
1991-02-19 07:00:00 UTC,2448306.791667,24.0533,-82.1617,0600,-5.02,3.63,6.1949,305.8710
1991-02-19 08:00:00 UTC,2448306.833333,24.0533,-82.1617,0600,-2.52,1.80,3.0968,305.5377
1991-02-19 09:00:00 UTC,2448306.875000,24.0533,-82.1617,0600,-0.33,0.19,0.3808,299.9315
1991-02-19 10:00:00 UTC,2448306.916667,24.0533,-82.1617,0600,-3.42,1.56,3.7590,294.5197
1991-02-19 11:00:00 UTC,2448306.958333,24.0533,-82.1617,0600,0.00,-0.05,0.0500,180.0000
1991-02-19 12:00:00 UTC,2448307.000000,24.0533,-82.1617,0600,-1.45,-0.08,1.4522,266.8420
1991-02-19 13:00:00 UTC,2448307.041667,24.0533,-82.1617,0600,-0.20,-0.03,0.2022,261.4692
1991-02-19 14:00:00 UTC,2448307.083333,24.0533,-82.1617,0600,0.17,0.03,0.1726,79.9920
1991-02-19 15:00:00 UTC,2448307.125000,24.0533,-82.1617,0600,-2.26,-0.32,2.2825,261.9409
1991-02-19 16:00:00 UTC,2448307.166667,24.0533,-82.1617,0600,-3.11,-0.38,3.1331,263.0338
1991-02-19 17:00:00 UTC,2448307.208333,24.0533,-82.1617,0600,-6.86,-0.40,6.8717,266.6629
1991-02-19 18:00:00 UTC,2448307.250000,24.0533,-82.1617,0600,-6.10,-1.37,6.2520,257.3420
1991-02-19 19:00:00 UTC,2448307.291667,24.0533,-82.1617,0600,-10.56,-1.22,10.6302,263.4098
1991-02-19 20:00:00 UTC,2448307.333333,24.0533,-82.1617,0600,-8.73,-0.63,8.7527,265.8724
1991-02-19 21:00:00 UTC,2448307.375000,24.0533,-82.1617,0600,-6.86,-0.55,6.8820,265.4161
1991-02-19 22:00:00 UTC,2448307.416667,24.0533,-82.1617,0600,-0.22,-0.01,0.2202,267.3974
1991-02-19 23:00:00 UTC,2448307.458333,24.0533,-82.1617,0600,-4.79,1.43,4.9989,286.6224
1991-02-20 00:00:00 UTC,2448307.500000,24.0533,-82.1617,0600,-2.79,1.44,3.1397,297.2996
1991-02-20 01:00:00 UTC,2448307.541667,24.0533,-82.1617,0600,-5.05,3.65,6.2310,305.8584
1991-02-20 02:00:00 UTC,2448307.583333,24.0533,-82.1617,0600,-4.77,2.94,5.6033,301.6477
1991-02-20 03:00:00 UTC,2448307.625000,24.0533,-82.1617,0600,-3.86,2.02,4.3566,297.6238
1991-02-20 04:00:00 UTC,2448307.666667,24.0533,-82.1617,0600,-4.86,3.16,5.7970,303.0322
1991-02-20 05:00:00 UTC,2448307.708333,24.0533,-82.1617,0600,-6.31,3.97,7.4550,302.1765
1991-02-20 06:00:00 UTC,2448307.750000,24.0533,-82.1617,0600,-7.13,3.82,8.0888,298.1808
1991-02-20 07:00:00 UTC,2448307.791667,24.0533,-82.1617,0600,-3.80,1.05,3.9424,285.4463
1991-02-20 08:00:00 UTC,2448307.833333,24.0533,-82.1617,0600,-4.47,0.97,4.5740,282.2435
1991-02-20 09:00:00 UTC,2448307.875000,24.0533,-82.1617,0600,-6.26,0.15,6.2618,271.3727
1991-02-20 10:00:00 UTC,2448307.916667,24.0533,-82.1617,0600,-3.12,-0.23,3.1285,265.7839
1991-02-20 11:00:00 UTC,2448307.958333,24.0533,-82.1617,0600,-3.74,0.38,3.7593,275.8016
1991-02-20 12:00:00 UTC,2448308.000000,24.0533,-82.1617,0600,-3.50,1.29,3.7302,290.2325
1991-02-20 13:00:00 UTC,2448308.041667,24.0533,-82.1617,0600,-2.64,1.65,3.1132,302.0054
1991-02-20 14:00:00 UTC,2448308.083333,24.0533,-82.1617,0600,-1.75,0.66,1.8703,290.6636
1991-02-20 15:00:00 UTC,2448308.125000,24.0533,-82.1617,0600,-1.47,1.14,1.8602,307.7939
1991-02-20 16:00:00 UTC,2448308.166667,24.0533,-82.1617,0600,-1.61,0.91,1.8494,299.4759
1991-02-20 17:00:00 UTC,2448308.208333,24.0533,-82.1617,0600,-0.18,0.04,0.1844,282.5288
1991-02-20 18:00:00 UTC,2448308.250000,24.0533,-82.1617,0600,-4.08,0.61,4.1253,278.5033
1991-02-20 19:00:00 UTC,2448308.291667,24.0533,-82.1617,0600,-5.80,-0.76,5.8496,262.5348
1991-02-20 20:00:00 UTC,2448308.333333,24.0533,-82.1617,0600,-3.21,-0.95,3.3476,253.5139
1991-02-20 21:00:00 UTC,2448308.375000,24.0533,-82.1617,0600,-2.37,-0.90,2.5351,249.2059
1991-02-20 22:00:00 UTC,2448308.416667,24.0533,-82.1617,0600,-4.35,-2.50,5.0172,240.1135
1991-02-20 23:00:00 UTC,2448308.458333,24.0533,-82.1617,0600,-3.53,-1.29,3.7583,249.9257
1991-02-21 00:00:00 UTC,2448308.500000,24.0533,-82.1617,0600,-6.16,-1.12,6.2610,259.6952
1991-02-21 01:00:00 UTC,2448308.541667,24.0533,-82.1617,0600,-2.45,-0.62,2.5272,255.7988
1991-02-21 02:00:00 UTC,2448308.583333,24.0533,-82.1617,0600,-3.11,-0.33,3.1275,263.9431
1991-02-21 03:00:00 UTC,2448308.625000,24.0533,-82.1617,0600,-6.18,0.63,6.2120,275.8207
1991-02-21 04:00:00 UTC,2448308.666667,24.0533,-82.1617,0600,-6.92,2.85,7.4839,292.3843
1991-02-21 05:00:00 UTC,2448308.708333,24.0533,-82.1617,0600,-10.04,3.40,10.6001,288.7084
1991-02-21 06:00:00 UTC,2448308.750000,24.0533,-82.1617,0600,-10.39,1.96,10.5733,280.6829
1991-02-21 07:00:00 UTC,2448308.791667,24.0533,-82.1617,0600,-9.80,1.63,9.9346,279.4434
1991-02-21 08:00:00 UTC,2448308.833333,24.0533,-82.1617,0600,-11.76,1.23,11.8241,275.9710
1991-02-21 09:00:00 UTC,2448308.875000,24.0533,-82.1617,0600,-12.45,-0.27,12.4529,268.7576
1991-02-21 10:00:00 UTC,2448308.916667,24.0533,-82.1617,0600,-11.79,-1.02,11.8340,265.0554
1991-02-21 11:00:00 UTC,2448308.958333,24.0533,-82.1617,0600,-9.21,1.43,9.3204,278.8256
1991-02-21 12:00:00 UTC,2448309.000000,24.0533,-82.1617,0600,-6.60,1.79,6.8384,285.1743
1991-02-21 13:00:00 UTC,2448309.041667,24.0533,-82.1617,0600,-4.18,1.31,4.3805,287.4008
1991-02-21 14:00:00 UTC,2448309.083333,24.0533,-82.1617,0600,-4.83,1.26,4.9916,284.6209
1991-02-21 15:00:00 UTC,2448309.125000,24.0533,-82.1617,0600,-6.06,1.38,6.2151,282.8288
1991-02-21 16:00:00 UTC,2448309.166667,24.0533,-82.1617,0600,-3.12,0.38,3.1431,276.9441
1991-02-21 17:00:00 UTC,2448309.208333,24.0533,-82.1617,0600,-5.62,-0.15,5.6220,268.4711
1991-02-21 18:00:00 UTC,2448309.250000,24.0533,-82.1617,0600,-3.67,-0.87,3.7717,256.6638
1991-02-21 19:00:00 UTC,2448309.291667,24.0533,-82.1617,0600,-4.74,-1.62,5.0092,251.1310
1991-02-21 20:00:00 UTC,2448309.333333,24.0533,-82.1617,0600,-7.91,-1.87,8.1280,256.6989
1991-02-21 21:00:00 UTC,2448309.375000,24.0533,-82.1617,0600,-10.40,-2.09,10.6079,258.6371
1991-02-21 22:00:00 UTC,2448309.416667,24.0533,-82.1617,0600,-9.36,-0.60,9.3792,266.3322
1991-02-21 23:00:00 UTC,2448309.458333,24.0533,-82.1617,0600,-11.21,0.53,11.2225,272.7069
1991-02-22 00:00:00 UTC,2448309.500000,24.0533,-82.1617,0600,-8.06,0.83,8.1026,275.8795
1991-02-22 01:00:00 UTC,2448309.541667,24.0533,-82.1617,0600,-6.67,2.26,7.0425,288.7180
1991-02-22 02:00:00 UTC,2448309.583333,24.0533,-82.1617,0600,-8.06,3.25,8.6906,291.9606
1991-02-22 03:00:00 UTC,2448309.625000,24.0533,-82.1617,0600,-8.67,6.03,10.5608,304.8187
1991-02-22 04:00:00 UTC,2448309.666667,24.0533,-82.1617,0600,-6.07,5.34,8.0846,311.3393
1991-02-22 05:00:00 UTC,2448309.708333,24.0533,-82.1617,0600,-3.07,2.40,3.8968,308.0168
1991-02-22 06:00:00 UTC,2448309.750000,24.0533,-82.1617,0600,-5.12,3.50,6.2020,304.3563
1991-02-22 07:00:00 UTC,2448309.791667,24.0533,-82.1617,0600,-6.50,3.69,7.4744,299.5833
1991-02-22 08:00:00 UTC,2448309.833333,24.0533,-82.1617,0600,-9.88,3.76,10.5713,290.8352
1991-02-22 09:00:00 UTC,2448309.875000,24.0533,-82.1617,0600,-10.89,4.54,11.7985,292.6311
1991-02-22 10:00:00 UTC,2448309.916667,24.0533,-82.1617,0600,-6.69,3.31,7.4641,296.3248
1991-02-22 11:00:00 UTC,2448309.958333,24.0533,-82.1617,0600,-6.56,2.01,6.8610,287.0352
1991-02-22 12:00:00 UTC,2448310.000000,24.0533,-82.1617,0600,-5.52,1.10,5.6285,281.2700
1991-02-22 13:00:00 UTC,2448310.041667,24.0533,-82.1617,0600,-3.55,1.18,3.7410,288.3865
1991-02-22 14:00:00 UTC,2448310.083333,24.0533,-82.1617,0600,-2.58,0.77,2.6925,286.6177
1991-02-22 15:00:00 UTC,2448310.125000,24.0533,-82.1617,0600,1.02,-0.41,1.0993,111.8982
1991-02-22 16:00:00 UTC,2448310.166667,24.0533,-82.1617,0600,-1.63,-0.49,1.7021,253.2685
1991-02-22 17:00:00 UTC,2448310.208333,24.0533,-82.1617,0600,-1.27,-0.83,1.5172,236.8336
1991-02-22 18:00:00 UTC,2448310.250000,24.0533,-82.1617,0600,-0.76,-0.41,0.8635,241.6543
1991-02-22 19:00:00 UTC,2448310.291667,24.0533,-82.1617,0600,1.25,1.15,1.6985,47.3859
1991-02-22 20:00:00 UTC,2448310.333333,24.0533,-82.1617,0600,-2.75,-2.61,3.7914,226.4962
1991-02-22 21:00:00 UTC,2448310.375000,24.0533,-82.1617,0600,-1.13,-0.62,1.2889,241.2476
1991-02-22 22:00:00 UTC,2448310.416667,24.0533,-82.1617,0600,-3.95,-2.01,4.4320,243.0302
1991-02-22 23:00:00 UTC,2448310.458333,24.0533,-82.1617,0600,-3.22,-2.01,3.7959,238.0266
1991-02-23 00:00:00 UTC,2448310.500000,24.0533,-82.1617,0600,-0.65,-0.55,0.8515,229.7637
1991-02-23 01:00:00 UTC,2448310.541667,24.0533,-82.1617,0600,-1.50,-1.16,1.8962,232.2840
1991-02-23 02:00:00 UTC,2448310.583333,24.0533,-82.1617,0600,-1.97,-0.73,2.1009,249.6674
1991-02-23 03:00:00 UTC,2448310.625000,24.0533,-82.1617,0600,-2.49,-0.38,2.5188,261.3230
1991-02-23 04:00:00 UTC,2448310.666667,24.0533,-82.1617,0600,-4.38,-0.08,4.3807,268.9536
1991-02-23 05:00:00 UTC,2448310.708333,24.0533,-82.1617,0600,-9.17,1.66,9.3190,280.2609
1991-02-23 06:00:00 UTC,2448310.750000,24.0533,-82.1617,0600,-10.00,3.55,10.6114,289.5449
1991-02-23 07:00:00 UTC,2448310.791667,24.0533,-82.1617,0600,-10.47,3.98,11.2010,290.8135
1991-02-23 08:00:00 UTC,2448310.833333,24.0533,-82.1617,0600,-11.50,2.79,11.8336,283.6370
1991-02-23 09:00:00 UTC,2448310.875000,24.0533,-82.1617,0600,-13.27,5.27,14.2782,291.6599
1991-02-23 10:00:00 UTC,2448310.916667,24.0533,-82.1617,0600,-10.17,7.12,12.4146,304.9958
1991-02-23 11:00:00 UTC,2448310.958333,24.0533,-82.1617,0600,-9.45,5.95,11.1671,302.1957
1991-02-23 12:00:00 UTC,2448311.000000,24.0533,-82.1617,0600,-7.09,3.87,8.0774,298.6274
1991-02-23 13:00:00 UTC,2448311.041667,24.0533,-82.1617,0600,-4.15,3.09,5.1740,306.6706
1991-02-23 14:00:00 UTC,2448311.083333,24.0533,-82.1617,0600,-0.18,0.09,0.2012,296.5651
1991-02-23 15:00:00 UTC,2448311.125000,24.0533,-82.1617,0600,0.55,-0.70,0.8902,141.8428
1991-02-23 16:00:00 UTC,2448311.166667,24.0533,-82.1617,0600,1.64,-1.08,1.9637,123.3663
1991-02-23 17:00:00 UTC,2448311.208333,24.0533,-82.1617,0600,-2.75,2.52,3.7300,312.5010
1991-02-23 18:00:00 UTC,2448311.250000,24.0533,-82.1617,0600,-1.93,0.62,2.0271,287.8093
1991-02-23 19:00:00 UTC,2448311.291667,24.0533,-82.1617,0600,-1.66,0.18,1.6697,276.1886
1991-02-23 20:00:00 UTC,2448311.333333,24.0533,-82.1617,0600,-1.35,0.55,1.4577,292.1664
1991-02-23 21:00:00 UTC,2448311.375000,24.0533,-82.1617,0600,-0.38,0.11,0.3956,286.1443
1991-02-23 22:00:00 UTC,2448311.416667,24.0533,-82.1617,0600,0.66,-0.15,0.6768,102.8043
1991-02-23 23:00:00 UTC,2448311.458333,24.0533,-82.1617,0600,2.35,0.17,2.3561,85.8624
1991-02-24 00:00:00 UTC,2448311.500000,24.0533,-82.1617,0600,0.67,0.13,0.6825,79.0193
1991-02-24 01:00:00 UTC,2448311.541667,24.0533,-82.1617,0600,0.39,0.14,0.4144,70.2532
1991-02-24 02:00:00 UTC,2448311.583333,24.0533,-82.1617,0600,-2.93,-1.22,3.1738,247.3940
1991-02-24 03:00:00 UTC,2448311.625000,24.0533,-82.1617,0600,-5.32,-5.29,7.5024,225.1620
1991-02-24 04:00:00 UTC,2448311.666667,24.0533,-82.1617,0600,0.66,1.08,1.2657,31.4296
1991-02-24 05:00:00 UTC,2448311.708333,24.0533,-82.1617,0600,-5.46,-4.22,6.9007,232.2998
1991-02-24 06:00:00 UTC,2448311.750000,24.0533,-82.1617,0600,1.74,0.17,1.7483,84.4198
1991-02-24 07:00:00 UTC,2448311.791667,24.0533,-82.1617,0600,0.03,-0.02,0.0361,123.6901
1991-02-24 08:00:00 UTC,2448311.833333,24.0533,-82.1617,0600,-4.89,0.85,4.9633,279.8609
1991-02-24 09:00:00 UTC,2448311.875000,24.0533,-82.1617,0600,-7.86,1.99,8.1080,284.2076
1991-02-24 10:00:00 UTC,2448311.916667,24.0533,-82.1617,0600,-12.29,1.91,12.4375,278.8337
1991-02-24 11:00:00 UTC,2448311.958333,24.0533,-82.1617,0600,-16.75,1.45,16.8126,274.9476
1991-02-24 12:00:00 UTC,2448312.000000,24.0533,-82.1617,0600,-19.50,3.92,19.8901,281.3664
1991-02-24 13:00:00 UTC,2448312.041667,24.0533,-82.1617,0600,-12.42,4.03,13.0575,287.9771
1991-02-24 14:00:00 UTC,2448312.083333,24.0533,-82.1617,0600,-11.86,3.80,12.4539,287.7657
1991-02-24 15:00:00 UTC,2448312.125000,24.0533,-82.1617,0600,-9.78,1.91,9.9648,281.0506
1991-02-24 16:00:00 UTC,2448312.166667,24.0533,-82.1617,0600,-8.63,3.63,9.3624,292.8129
1991-02-24 17:00:00 UTC,2448312.208333,24.0533,-82.1617,0600,-3.50,1.24,3.7132,289.5085
1991-02-24 18:00:00 UTC,2448312.250000,24.0533,-82.1617,0600,-3.33,0.14,3.3329,272.4074
1991-02-24 19:00:00 UTC,2448312.291667,24.0533,-82.1617,0600,-5.63,-0.05,5.6302,269.4912
1991-02-24 20:00:00 UTC,2448312.333333,24.0533,-82.1617,0600,-2.58,0.77,2.6925,286.6177
1991-02-24 21:00:00 UTC,2448312.375000,24.0533,-82.1617,0600,-4.99,0.37,5.0037,274.2406
1991-02-24 22:00:00 UTC,2448312.416667,24.0533,-82.1617,0600,0.00,0.00,0.0000,0.0000
1991-02-24 23:00:00 UTC,2448312.458333,24.0533,-82.1617,0600,-3.64,0.85,3.7379,283.1440
1991-02-25 00:00:00 UTC,2448312.500000,24.0533,-82.1617,0600,-2.67,0.49,2.7146,280.3992
1991-02-25 01:00:00 UTC,2448312.541667,24.0533,-82.1617,0600,-2.82,0.49,2.8623,279.8572
1991-02-25 02:00:00 UTC,2448312.583333,24.0533,-82.1617,0600,-1.23,0.03,1.2304,271.3972
1991-02-25 03:00:00 UTC,2448312.625000,24.0533,-82.1617,0600,-0.40,-0.02,0.4005,267.1376
1991-02-25 04:00:00 UTC,2448312.666667,24.0533,-82.1617,0600,-1.44,-0.23,1.4583,260.9252
1991-02-25 05:00:00 UTC,2448312.708333,24.0533,-82.1617,0600,-1.26,0.20,1.2758,279.0193
1991-02-25 06:00:00 UTC,2448312.750000,24.0533,-82.1617,0600,0.66,-0.27,0.7131,112.2490
1991-02-25 07:00:00 UTC,2448312.791667,24.0533,-82.1617,0600,-1.82,0.45,1.8748,283.8880
1991-02-25 08:00:00 UTC,2448312.833333,24.0533,-82.1617,0600,-1.83,0.60,1.9259,288.1527
1991-02-25 09:00:00 UTC,2448312.875000,24.0533,-82.1617,0600,-3.68,0.70,3.7460,280.7700
1991-02-25 10:00:00 UTC,2448312.916667,24.0533,-82.1617,0600,-5.01,1.40,5.2019,285.6125
1991-02-25 11:00:00 UTC,2448312.958333,24.0533,-82.1617,0600,-8.12,0.25,8.1238,271.7635
1991-02-25 12:00:00 UTC,2448313.000000,24.0533,-82.1617,0600,-10.52,1.03,10.5703,275.5919
1991-02-25 13:00:00 UTC,2448313.041667,24.0533,-82.1617,0600,-12.36,1.30,12.4282,276.0042
1991-02-25 14:00:00 UTC,2448313.083333,24.0533,-82.1617,0600,-5.54,0.98,5.6260,280.0316
1991-02-25 15:00:00 UTC,2448313.125000,24.0533,-82.1617,0600,-3.10,0.50,3.1401,279.1624
1991-02-25 16:00:00 UTC,2448313.166667,24.0533,-82.1617,0600,-2.06,0.19,2.0687,275.2697
1991-02-25 17:00:00 UTC,2448313.208333,24.0533,-82.1617,0600,-6.16,-1.07,6.2522,260.1460
1991-02-25 18:00:00 UTC,2448313.250000,24.0533,-82.1617,0600,-3.05,-1.35,3.3354,246.1247
1991-02-25 19:00:00 UTC,2448313.291667,24.0533,-82.1617,0600,-4.15,-2.47,4.8294,239.2397
1991-02-25 20:00:00 UTC,2448313.333333,24.0533,-82.1617,0600,-5.83,-3.69,6.8996,237.6689
1991-02-25 21:00:00 UTC,2448313.375000,24.0533,-82.1617,0600,-6.67,-3.47,7.5186,242.5148
1991-02-25 22:00:00 UTC,2448313.416667,24.0533,-82.1617,0600,-7.64,-2.88,8.1648,249.3454
1991-02-25 23:00:00 UTC,2448313.458333,24.0533,-82.1617,0600,-7.97,-1.60,8.1290,258.6486
1991-02-26 00:00:00 UTC,2448313.500000,24.0533,-82.1617,0600,-10.73,-3.26,11.2143,253.1001
1991-02-26 01:00:00 UTC,2448313.541667,24.0533,-82.1617,0600,-9.18,-1.99,9.3932,257.7689
1991-02-26 02:00:00 UTC,2448313.583333,24.0533,-82.1617,0600,-7.29,-1.72,7.4902,256.7244
1991-02-26 03:00:00 UTC,2448313.625000,24.0533,-82.1617,0600,-9.35,-0.93,9.3961,264.3198
1991-02-26 04:00:00 UTC,2448313.666667,24.0533,-82.1617,0600,-3.75,-0.05,3.7503,269.2361
1991-02-26 05:00:00 UTC,2448313.708333,24.0533,-82.1617,0600,-1.88,-0.00,1.8800,270.0000
1991-02-26 06:00:00 UTC,2448313.750000,24.0533,-82.1617,0600,-0.92,0.41,1.0072,294.0203
1991-02-26 07:00:00 UTC,2448313.791667,24.0533,-82.1617,0600,-0.15,0.09,0.1749,300.9637
1991-02-26 08:00:00 UTC,2448313.833333,24.0533,-82.1617,0600,-1.97,2.37,3.0818,320.2658
1991-02-26 09:00:00 UTC,2448313.875000,24.0533,-82.1617,0600,-3.65,5.01,6.1986,323.9250
1991-02-26 10:00:00 UTC,2448313.916667,24.0533,-82.1617,0600,-2.91,3.21,4.3327,317.8064
1991-02-26 11:00:00 UTC,2448313.958333,24.0533,-82.1617,0600,-1.75,0.68,1.8775,291.2347
1991-02-26 12:00:00 UTC,2448314.000000,24.0533,-82.1617,0600,-5.15,2.30,5.6403,294.0656
1991-02-26 13:00:00 UTC,2448314.041667,24.0533,-82.1617,0600,-4.93,0.60,4.9664,276.9390
1991-02-26 14:00:00 UTC,2448314.083333,24.0533,-82.1617,0600,-6.24,-0.35,6.2498,266.7897
1991-02-26 15:00:00 UTC,2448314.125000,24.0533,-82.1617,0600,-8.73,-0.13,8.7310,269.1469
1991-02-26 16:00:00 UTC,2448314.166667,24.0533,-82.1617,0600,-4.37,-0.33,4.3824,265.6815
1991-02-26 17:00:00 UTC,2448314.208333,24.0533,-82.1617,0600,-3.87,-0.91,3.9756,256.7677
1991-02-26 18:00:00 UTC,2448314.250000,24.0533,-82.1617,0600,-1.78,-0.60,1.8784,251.3721
1991-02-26 19:00:00 UTC,2448314.291667,24.0533,-82.1617,0600,-1.69,-0.89,1.9100,242.2275
1991-02-26 20:00:00 UTC,2448314.333333,24.0533,-82.1617,0600,-4.26,-0.97,4.3690,257.1725
1991-02-26 21:00:00 UTC,2448314.375000,24.0533,-82.1617,0600,-3.55,-1.39,3.8124,248.6172
1991-02-26 22:00:00 UTC,2448314.416667,24.0533,-82.1617,0600,-5.86,-2.24,6.2735,249.0805
1991-02-26 23:00:00 UTC,2448314.458333,24.0533,-82.1617,0600,-5.60,-0.85,5.6641,261.3692
1991-02-27 00:00:00 UTC,2448314.500000,24.0533,-82.1617,0600,-7.70,-2.56,8.1144,251.6097
1991-02-27 01:00:00 UTC,2448314.541667,24.0533,-82.1617,0600,-8.38,-2.51,8.7478,253.3259
1991-02-27 02:00:00 UTC,2448314.583333,24.0533,-82.1617,0600,-7.37,-1.40,7.5018,259.2443
1991-02-27 03:00:00 UTC,2448314.625000,24.0533,-82.1617,0600,-8.07,-0.97,8.1281,263.1460
1991-02-27 04:00:00 UTC,2448314.666667,24.0533,-82.1617,0600,-3.85,-0.78,3.9282,258.5471
1991-02-27 05:00:00 UTC,2448314.708333,24.0533,-82.1617,0600,-1.23,-0.40,1.2934,251.9853
1991-02-27 06:00:00 UTC,2448314.750000,24.0533,-82.1617,0600,0.17,0.06,0.1803,70.5600
1991-02-27 07:00:00 UTC,2448314.791667,24.0533,-82.1617,0600,2.10,1.34,2.4911,57.4582
1991-02-27 08:00:00 UTC,2448314.833333,24.0533,-82.1617,0600,1.19,0.35,1.2404,73.6105
1991-02-27 09:00:00 UTC,2448314.875000,24.0533,-82.1617,0600,0.42,0.04,0.4219,84.5597
1991-02-27 10:00:00 UTC,2448314.916667,24.0533,-82.1617,0600,0.38,-0.21,0.4342,118.9264
1991-02-27 11:00:00 UTC,2448314.958333,24.0533,-82.1617,0600,-1.71,0.78,1.8795,294.5197
1991-02-27 12:00:00 UTC,2448315.000000,24.0533,-82.1617,0600,-3.71,0.73,3.7811,281.1316
1991-02-27 13:00:00 UTC,2448315.041667,24.0533,-82.1617,0600,-5.57,0.45,5.5881,274.6189
1991-02-27 14:00:00 UTC,2448315.083333,24.0533,-82.1617,0600,-12.34,-1.70,12.4565,262.1561
1991-02-27 15:00:00 UTC,2448315.125000,24.0533,-82.1617,0600,-11.94,-3.58,12.4652,253.3096
1991-02-27 16:00:00 UTC,2448315.166667,24.0533,-82.1617,0600,-8.78,-1.80,8.9626,258.4142
1991-02-27 17:00:00 UTC,2448315.208333,24.0533,-82.1617,0600,-7.93,-1.82,8.1362,257.0740
1991-02-27 18:00:00 UTC,2448315.250000,24.0533,-82.1617,0600,-8.29,-2.84,8.7630,251.0895
1991-02-27 19:00:00 UTC,2448315.291667,24.0533,-82.1617,0600,-6.14,-1.10,6.2378,259.8430
1991-02-27 20:00:00 UTC,2448315.333333,24.0533,-82.1617,0600,-1.63,0.08,1.6320,272.8098
1991-02-27 21:00:00 UTC,2448315.375000,24.0533,-82.1617,0600,-4.20,1.26,4.3849,286.6992
1991-02-27 22:00:00 UTC,2448315.416667,24.0533,-82.1617,0600,-2.65,-0.61,2.7193,257.0370
1991-02-27 23:00:00 UTC,2448315.458333,24.0533,-82.1617,0600,-7.11,-2.29,7.4697,252.1472
1991-02-28 00:00:00 UTC,2448315.500000,24.0533,-82.1617,0600,-8.83,-3.18,9.3852,250.1942
1991-02-28 01:00:00 UTC,2448315.541667,24.0533,-82.1617,0600,-10.81,-3.06,11.2348,254.1947
1991-02-28 02:00:00 UTC,2448315.583333,24.0533,-82.1617,0600,-11.62,-2.17,11.8209,259.4220
1991-02-28 03:00:00 UTC,2448315.625000,24.0533,-82.1617,0600,-6.16,-1.20,6.2758,258.9766
1991-02-28 04:00:00 UTC,2448315.666667,24.0533,-82.1617,0600,-2.37,-0.80,2.5014,251.3477
1991-02-28 05:00:00 UTC,2448315.708333,24.0533,-82.1617,0600,-2.37,-0.82,2.5078,250.9148
1991-02-28 06:00:00 UTC,2448315.750000,24.0533,-82.1617,0600,-3.84,-2.16,4.4058,240.6423
1991-02-28 07:00:00 UTC,2448315.791667,24.0533,-82.1617,0600,-3.39,-1.64,3.7659,244.1834
1991-02-28 08:00:00 UTC,2448315.833333,24.0533,-82.1617,0600,-1.24,-0.78,1.4649,237.8288
1991-02-28 09:00:00 UTC,2448315.875000,24.0533,-82.1617,0600,0.40,0.09,0.4100,77.3196
1991-02-28 10:00:00 UTC,2448315.916667,24.0533,-82.1617,0600,-3.03,1.38,3.3295,294.4867
1991-02-28 11:00:00 UTC,2448315.958333,24.0533,-82.1617,0600,-3.18,1.95,3.7303,301.5169
1991-02-28 12:00:00 UTC,2448316.000000,24.0533,-82.1617,0600,-5.66,2.58,6.2203,294.5049